CW8014 Weather Reports


Display with metric or nautical units.
time (UTC)temp
F
wind
direction
speed
MPH
gust
MPH
rain 1hr
in
rain 24hr
in
rain mn
in
humidity
%
barometer
mb
20260505011412 47 12 4.0 8.0 0.00 0.00 0.00 90 1012.8
20260505010412 47 345 2.0 5.0 0.00 0.00 0.00 90 1012.8
20260505005415 47 333 2.0 7.0 0.00 0.00 0.00 90 1012.8
20260505004412 47 45 4.0 8.0 0.00 0.00 0.00 90 1012.9
20260505003412 47 327 3.0 9.0 0.00 0.00 0.00 91 1012.9
20260505002415 47 346 2.0 9.0 0.00 0.00 0.00 91 1013.0
20260505001412 47 11 3.0 8.0 0.00 0.00 0.00 91 1013.0
20260505000413 47 5 3.0 6.0 0.00 0.00 0.00 91 1013.1
20260504235412 47 5 3.0 6.0 0.00 0.00 0.00 91 1013.1
20260504233412 47 346 5.0 9.0 0.00 0.00 0.00 91 1013.1
20260504232412 47 355 4.0 10.0 0.00 0.00 0.00 90 1013.1
20260504231412 47 322 6.0 11.0 0.00 0.00 0.00 90 1013.2
20260504230412 48 17 5.0 10.0 0.00 0.00 0.00 90 1013.2
20260504223410 58 350 6.0 9.0 0.00 0.02 0.00 87 1012.6
20260504221410 58 350 6.0 9.0 0.00 0.02 0.00 87 1012.6
20260504220410 58 350 6.0 9.0 0.00 0.02 0.00 87 1012.6
20260504215410 58 350 6.0 9.0 0.00 0.02 0.00 87 1012.6
20260504214410 58 350 6.0 9.0 0.00 0.02 0.00 87 1012.6
20260504212410 58 350 6.0 9.0 0.00 0.02 0.00 87 1012.6
20260504211410 58 350 6.0 9.0 0.00 0.02 0.00 87 1012.6
20260504210413 58 350 6.0 9.0 0.00 0.02 0.00 87 1012.6
20260504205410 58 350 6.0 9.0 0.00 0.02 0.00 87 1012.6
20260504204410 58 350 6.0 9.0 0.00 0.02 0.00 87 1012.6
20260504203410 58 350 6.0 9.0 0.00 0.02 0.00 87 1012.6
20260504201410 58 350 6.0 9.0 0.00 0.02 0.00 87 1012.6
20260504200410 58 350 6.0 9.0 0.00 0.02 0.00 87 1012.6
20260504195413 58 350 6.0 9.0 0.00 0.02 0.00 87 1012.6
20260504194410 58 350 6.0 9.0 0.00 0.02 0.00 87 1012.6
20260504193410 58 350 6.0 9.0 0.00 0.02 0.00 87 1012.6
20260504192410 58 350 6.0 9.0 0.00 0.02 0.00 87 1012.6
20260504191410 58 350 6.0 9.0 0.00 0.02 0.00 87 1012.6
20260504185410 58 350 6.0 9.0 0.00 0.02 0.00 87 1012.6
20260504184413 58 350 6.0 9.0 0.00 0.02 0.00 87 1012.6
20260504183410 58 350 6.0 9.0 0.00 0.02 0.00 87 1012.6
20260504181409 58 350 6.0 9.0 0.00 0.02 0.00 87 1012.6
20260504180409 58 350 6.0 9.0 0.00 0.02 0.00 87 1012.6
20260504174410 58 350 6.0 9.0 0.00 0.02 0.00 87 1012.6
20260504173409 58 350 6.0 9.0 0.00 0.02 0.00 87 1012.6
20260504172410 58 350 6.0 9.0 0.00 0.02 0.00 87 1012.6
20260504170409 59 5 6.0 11.0 0.00 0.02 0.00 86 1012.6
20260504160409 61 44 5.0 10.0 0.00 0.02 0.00 85 1012.7
20260504140403 64 9 6.0 11.0 0.00 0.67 0.00 83 1012.7
20260504110403 62 92 2.0 6.0 0.00 0.80 0.00 84 1013.1
20260504081402 56 83 0.0 2.0 0.00 0.80 0.00 92 1013.0
20260504070408 55 34 1.0 3.0 0.00 0.80 0.00 96 1012.3
20260504050407 53 351 1.0 2.0 0.00 0.80 0.00 97 1011.8
20260504045407 53 317 1.0 3.0 0.00 0.80 0.00 97 1011.7
20260504044407 53 360 2.0 4.0 0.00 0.80 0.00 97 1011.6
20260504043410 53 333 2.0 4.0 0.00 0.80 0.00 97 1011.5
20260504042407 53 341 3.0 6.0 0.00 0.80 0.00 97 1011.6
20260504041407 54 331 3.0 6.0 0.00 0.80 0.00 97 1011.6
20260504040407 54 317 2.0 4.0 0.00 0.80 0.00 97 1011.6
20260504035407 54 325 2.0 4.0 0.00 0.80 0.00 97 1011.6
20260504033407 54 341 1.0 3.0 0.00 0.80 0.00 96 1011.6
20260504032407 54 342 1.0 2.0 0.00 0.80 0.00 96 1011.5
20260504031407 54 355 2.0 4.0 0.00 0.80 0.00 97 1011.5
20260504030407 54 340 3.0 5.0 0.00 0.80 0.00 97 1011.4
20260504025410 54 319 6.0 10.0 0.00 0.80 0.00 96 1011.5
20260504024407 55 350 4.0 8.0 0.00 0.80 0.00 97 1011.1
20260504023407 55 325 4.0 9.0 0.00 0.80 0.00 97 1011.1
20260504022407 55 315 4.0 7.0 0.00 0.80 0.00 97 1011.1
20260504020407 56 311 4.0 8.0 0.00 0.80 0.00 97 1010.9
20260504015407 56 317 4.0 8.0 0.00 0.80 0.00 97 1011.0
20260504013407 56 292 3.0 7.0 0.00 0.80 0.00 97 1010.8
20260504012407 57 310 1.0 3.0 0.00 0.80 0.00 97 1010.7